[[{"header":{"parameterUnit":"m.s-1","parameterCategory":2,"la1":30.2991,"la2":30.254,"lo1":-89.0895,"lo2":-89.0444,"dy":0.0017,"dx":0.0017,"nx":28,"ny":28,"refTime":"2023-08-18T21:00:00:Z","depth":"0","parameterNumber":2,"parameterNumberName":"U-component_of_CURRENTS"},"data":[0,0,0,0,0,0,0,0,0,0,0,0,0,0,0,0,0,0,0,0,0,0,0,0,0,0,0,0,0,0,0,0,0,0,0,0,0,0,0,0,0,0,0,0,0,0,0,0,0,0,0,0,0,0,0,0,0,0,0.2078,0.208,0,0.2166,0.2167,0.2167,0.2141,0.214,0.2139,0.2138,0.2211,0.2214,0.2217,0,0,0,0,0,0,0,0,0,0,0,0,0,0.1957,0.1958,0.2078,0.208,0.2082,0.2166,0.2167,0.2167,0.2141,0.214,0.2139,0.2138,0.221,0.2213,0.2217,0,0,0,0,0,0,0,0,0,0,0,0,0,0.2015,0.1958,0.2078,0.2085,0.2088,0.2166,0.2167,0.2167,0.2142,0.214,0.2139,0.2137,0.2209,0.2213,0.2217,0.2275,0,0,0.2231,0.2232,0,0,0,0,0,0,0,0,0.2012,0.2019,0.2082,0.2085,0.2088,0.2149,0.2151,0.2205,0.2142,0.2112,0.2138,0.2136,0.2195,0.2201,0.2209,0.2279,0.2282,0.2231,0.2234,0.2235,0.2237,0,0,0,0,0,0,0,0.2008,0.2015,0.2104,0.2085,0.2088,0.2109,0.2114,0.2161,0.2154,0.2115,0.2115,0.2139,0.2195,0.2205,0.221,0.2283,0.2231,0.2235,0.2237,0.2239,0.2355,0.2355,0,0,0,0,0,0,0.2013,0.2011,0.2102,0.2108,0.2055,0.2113,0.2118,0.2124,0.2154,0.216,0.214,0.2138,0.2198,0.2205,0.2213,0.2254,0.2235,0.2239,0.2242,0.2354,0.2355,0.2355,0,0,0,0,0,0,0.2009,0.2019,0.2098,0.2069,0.2082,0.2117,0.2123,0.2126,0.2137,0.2176,0.2179,0.2149,0.2197,0.2207,0.2232,0.2258,0.2241,0.2245,0.2354,0.2354,0.2355,0.2356,0,0,0,0,0,0,0.2005,0.2017,0.2018,0.2069,0.2084,0.2147,0.2126,0.213,0.2158,0.2155,0.2185,0.2189,0.2197,0.2225,0.2236,0.2264,0.2249,0.2353,0.2354,0.2355,0.2356,0.2357,0.2358,0,0,0,0,0,0.2,0.2007,0.2017,0.2029,0.2085,0.2149,0.2157,0.2172,0.216,0.2172,0.2171,0.2188,0.2239,0.2229,0.2242,0.2271,0.2353,0.2354,0.2355,0.2355,0.2357,0.2358,0,0,0,0,0,0,0.1959,0.2008,0.2019,0.2041,0.2096,0.2147,0.2164,0.218,0.2191,0.2184,0.2197,0.2202,0.2235,0.2253,0.2242,0.2305,0.23,0.2303,0.2296,0.2297,0.2299,0.2304,0.2252,0,0,0,0,0,0.1955,0.1964,0.2031,0.2049,0.2076,0.2122,0.2148,0.217,0.2195,0.2198,0.2216,0.2233,0.2253,0.2271,0.2295,0.2339,0.2361,0.2365,0.2366,0.2367,0.2379,0.2423,0.243,0.2359,0.2359,0.2359,0,0,0.195,0.1976,0.1984,0.2042,0.2078,0.2122,0.213,0.2181,0.2208,0.2209,0.2231,0.2244,0.2264,0.2295,0.2314,0.2313,0.2396,0.2368,0.2369,0.2381,0.2425,0.2432,0.2438,0.2359,0.2359,0.2359,0,0,0.194,0.1965,0.1969,0.202,0.2088,0.2127,0.2145,0.2205,0.2216,0.2255,0.225,0.2269,0.2314,0.2325,0.2337,0.2367,0.2399,0.2381,0.24,0.2442,0.2448,0.2454,0.248,0.2488,0.2384,0.2384,0.2384,0,0.1931,0.1949,0.1987,0.2017,0.2063,0.2128,0.2166,0.2199,0.2256,0.2274,0.2261,0.2314,0.2327,0.2366,0.2362,0.2372,0.2396,0.2391,0.2444,0.2451,0.2457,0.2482,0.2491,0.2384,0.2384,0.2384,0.2384,0,0.1933,0.1959,0.1975,0.2026,0.2077,0.2132,0.2199,0.2238,0.2263,0.2297,0.2341,0.235,0.2382,0.2389,0.2382,0.2437,0.2439,0.2438,0.2441,0.2464,0.2489,0.2498,0.2384,0.2384,0.2384,0.2384,0,0,0.1892,0.1959,0.1965,0.2,0.2094,0.2142,0.2195,0.227,0.2306,0.2348,0.2385,0.241,0.2423,0.2437,0.2442,0.2474,0.2522,0.2475,0.2477,0.25,0.2613,0.2638,0.2651,0.2536,0.2538,0.2539,0.2608,0,0.1888,0.193,0.1968,0.2037,0.2083,0.2163,0.2207,0.2281,0.2334,0.2385,0.2416,0.2451,0.2441,0.2454,0.2487,0.2517,0.255,0.2503,0.2587,0.2589,0.261,0.2664,0.2675,0.2741,0.2617,0.2619,0.262,0,0.1881,0.1918,0.1965,0.2056,0.2081,0.2124,0.2228,0.2278,0.2368,0.2405,0.2458,0.2489,0.254,0.2521,0.2601,0.2575,0.2597,0.2616,0.2619,0.2654,0.2634,0.27,0.2763,0.2668,0.2635,0.2634,0.2633,0,0.1847,0.1921,0.1954,0.1993,0.2097,0.2126,0.218,0.2277,0.2318,0.2419,0.2452,0.2533,0.2559,0.2617,0.2656,0.2638,0.2742,0.2721,0.2765,0.2766,0.2799,0.28,0.2785,0.2784,0.2784,0.2784,0.2783,0,0.1843,0.1878,0.1937,0.197,0.2015,0.2098,0.2153,0.2222,0.2307,0.2362,0.2447,0.2494,0.2586,0.2652,0.2687,0.2766,0.2771,0.2791,0.28,0.2798,0.2798,0.2736,0.2636,0.2786,0.2786,0.2785,0.2785,0,0.1817,0.1849,0.1904,0.1986,0.1999,0.2037,0.2112,0.216,0.2245,0.2317,0.2346,0.2472,0.2578,0.2663,0.2764,0.28,0.2831,0.2891,0.2877,0.2884,0.2844,0.2744,0.2746,0.2725,0.2968,0.2969,0.297,0,0.1821,0.1838,0.1893,0.1906,0.1937,0.1988,0.202,0.2113,0.2164,0.2299,0.2327,0.2456,0.2554,0.2723,0.2843,0.2954,0.2855,0.3005,0.2978,0.2865,0.276,0.2693,0.267,0.3012,0.3013,0.3014,0.3015,0,0.1837,0.1836,0.1867,0.1875,0.1897,0.1929,0.1979,0.2006,0.2127,0.2192,0.2294,0.2384,0.2595,0.2739,0.2908,0.2985,0.292,0.3031,0.2927,0.2814,0.2728,0.2705,0.2918,0.3025,0.3024,0.3023,0.3023,0.3022,0.1841,0.1837,0.1839,0.1841,0.1863,0.1868,0.1865,0.1939,0.1997,0.2083,0.2214,0.232,0.2583,0.2844,0.2934,0.3052,0.2972,0.3012,0.2907,0.2857,0.2817,0.3047,0.3154,0.3154,0.3153,0.3153,0.3153,0,0.1812,0.179,0.1803,0.1788,0.1778,0.1802,0.1832,0.1819,0.1857,0.1983,0.2069,0.2289,0.2511,0.2729,0.2932,0.2904,0.2926,0.2847,0.2734,0.2725,0.2958,0.294,0.2988,0.2988,0.2988,0.2989,0.2989,0.2989,0.1788,0.1751,0.173,0.1685,0.1682,0.1629,0.1621,0.1626,0.1684,0.1759,0.1855,0.1984,0.2252,0.2522,0.264,0.2675,0.2547,0.2534,0.2466,0.2577,0.2583,0.2589,0.2552,0.2519,0.2518,0.2294,0.2291,0.2289]},{"header":{"parameterUnit":"m.s-1","parameterCategory":2,"la1":30.2991,"la2":30.254,"lo1":-89.0895,"lo2":-89.0444,"dy":0.0017,"dx":0.0017,"nx":28,"ny":28,"refTime":"2023-08-18T21:00:00:Z","depth":"0","parameterNumber":3,"parameterNumberName":"V-component_of_CURRENTS"},"data":[0,0,0,0,0,0,0,0,0,0,0,0,0,0,0,0,0,0,0,0,0,0,0,0,0,0,0,0,0,0,0,0,0,0,0,0,0,0,0,0,0,0,0,0,0,0,0,0,0,0,0,0,0,0,0,0,0,0,-0.0381,-0.0381,0,-0.0333,-0.0332,-0.0332,-0.0314,-0.0314,-0.0313,-0.0313,-0.0353,-0.0355,-0.0356,0,0,0,0,0,0,0,0,0,0,0,0,0,-0.0472,-0.047,-0.0381,-0.0381,-0.038,-0.0333,-0.0332,-0.0332,-0.0314,-0.0314,-0.0313,-0.0313,-0.0353,-0.0354,-0.0356,0,0,0,0,0,0,0,0,0,0,0,0,0,-0.0432,-0.047,-0.0382,-0.0362,-0.036,-0.0333,-0.0332,-0.0332,-0.0314,-0.0314,-0.0313,-0.0313,-0.0353,-0.0354,-0.0356,-0.0373,0,0,-0.0362,-0.0363,0,0,0,0,0,0,0,0,-0.0434,-0.0429,-0.0366,-0.0363,-0.0361,-0.0326,-0.0379,-0.0349,-0.0314,-0.0335,-0.0313,-0.0313,-0.035,-0.0352,-0.0348,-0.0375,-0.0376,-0.0362,-0.0363,-0.0364,-0.0364,0,0,0,0,0,0,0,-0.0437,-0.0431,-0.0366,-0.0365,-0.0362,-0.036,-0.0354,-0.0373,-0.0349,-0.0333,-0.0331,-0.032,-0.035,-0.0346,-0.0349,-0.0377,-0.0362,-0.0364,-0.0365,-0.0365,-0.0407,-0.0407,0,0,0,0,0,0,-0.0435,-0.0434,-0.0367,-0.0364,-0.0394,-0.0358,-0.0352,-0.034,-0.0347,-0.0346,-0.032,-0.0319,-0.0343,-0.0346,-0.035,-0.0355,-0.0364,-0.0366,-0.0367,-0.0407,-0.0407,-0.0407,0,0,0,0,0,0,-0.0437,-0.043,-0.0369,-0.0395,-0.0387,-0.0357,-0.0344,-0.0339,-0.0334,-0.0335,-0.0337,-0.0319,-0.0343,-0.0347,-0.0364,-0.0357,-0.0366,-0.0368,-0.0407,-0.0407,-0.0407,-0.0375,0,0,0,0,0,0,-0.044,-0.0431,-0.0434,-0.0395,-0.0385,-0.0348,-0.0343,-0.0338,-0.0326,-0.0324,-0.0335,-0.0338,-0.0343,-0.0361,-0.0366,-0.036,-0.037,-0.0407,-0.0407,-0.0407,-0.0376,-0.0374,-0.0372,0,0,0,0,0,-0.0444,-0.0428,-0.0435,-0.0427,-0.0386,-0.0347,-0.0343,-0.0323,-0.0326,-0.032,-0.033,-0.0338,-0.0364,-0.0363,-0.0368,-0.0362,-0.0407,-0.0407,-0.0407,-0.0377,-0.0374,-0.0372,0,0,0,0,0,0,-0.0449,-0.0423,-0.043,-0.0404,-0.0382,-0.0343,-0.0333,-0.0326,-0.0328,-0.033,-0.0342,-0.0346,-0.0356,-0.0368,-0.0367,-0.0375,-0.0385,-0.0386,-0.0361,-0.0358,-0.0356,-0.0335,-0.0371,0,0,0,0,0,-0.0458,-0.0453,-0.0422,-0.0403,-0.0394,-0.0372,-0.0359,-0.0342,-0.033,-0.033,-0.0338,-0.035,-0.036,-0.0367,-0.0377,-0.0388,-0.0399,-0.0387,-0.0385,-0.0383,-0.037,-0.0381,-0.0379,-0.0407,-0.0407,-0.0407,0,0,-0.045,-0.044,-0.0433,-0.0408,-0.0392,-0.037,-0.0364,-0.0334,-0.0317,-0.0337,-0.0332,-0.0347,-0.0362,-0.0365,-0.0371,-0.0375,-0.0385,-0.0383,-0.0381,-0.0369,-0.0381,-0.0378,-0.0375,-0.0407,-0.0407,-0.0407,0,0,-0.0425,-0.0428,-0.0416,-0.0404,-0.0381,-0.0367,-0.036,-0.0329,-0.032,-0.0317,-0.0325,-0.0334,-0.0353,-0.0353,-0.0358,-0.0356,-0.0374,-0.0364,-0.0335,-0.0347,-0.0344,-0.0342,-0.0365,-0.0365,-0.0362,-0.0362,-0.0362,0,-0.0418,-0.04,-0.0404,-0.039,-0.0371,-0.0366,-0.0337,-0.033,-0.0308,-0.0298,-0.0312,-0.0323,-0.0342,-0.0335,-0.0331,-0.0349,-0.0364,-0.0342,-0.0343,-0.0341,-0.0339,-0.0363,-0.0364,-0.036,-0.036,-0.0361,-0.0361,0,-0.0384,-0.0376,-0.0362,-0.0354,-0.0339,-0.0308,-0.0295,-0.0287,-0.0286,-0.0274,-0.0268,-0.029,-0.0292,-0.0303,-0.0318,-0.0311,-0.0329,-0.034,-0.0346,-0.0334,-0.0361,-0.0362,-0.0358,-0.0359,-0.0359,-0.036,0,0,-0.0328,-0.0338,-0.0329,-0.0327,-0.0314,-0.0288,-0.0274,-0.0244,-0.0227,-0.023,-0.0207,-0.0226,-0.0236,-0.0243,-0.0263,-0.0271,-0.0284,-0.0298,-0.03,-0.0315,-0.0318,-0.0324,-0.0327,-0.0296,-0.0296,-0.0296,-0.0346,0,-0.0292,-0.0268,-0.0277,-0.0245,-0.0228,-0.0229,-0.0216,-0.0197,-0.019,-0.0176,-0.0189,-0.0186,-0.0215,-0.0219,-0.0231,-0.0262,-0.0283,-0.027,-0.0332,-0.0334,-0.0335,-0.0326,-0.0296,-0.0337,-0.0347,-0.0347,-0.0348,0,-0.0243,-0.0237,-0.0202,-0.0198,-0.0187,-0.017,-0.0138,-0.0127,-0.0117,-0.0112,-0.011,-0.0128,-0.0135,-0.0172,-0.0213,-0.0203,-0.026,-0.0291,-0.0294,-0.0306,-0.034,-0.0348,-0.0338,-0.0387,-0.0349,-0.0349,-0.0349,0,-0.0192,-0.0177,-0.015,-0.0144,-0.0139,-0.012,-0.0115,-0.01,-0.0084,-0.0074,-0.0061,-0.0076,-0.0084,-0.0136,-0.0202,-0.0212,-0.0254,-0.028,-0.0342,-0.0344,-0.0332,-0.0333,-0.0366,-0.0326,-0.0325,-0.0325,-0.0325,0,-0.0143,-0.012,-0.0126,-0.0108,-0.0072,-0.0084,-0.0042,-0.004,-0.0032,-0.0005,-0.0029,-0.0009,-0.0076,-0.0109,-0.0181,-0.0252,-0.0243,-0.0329,-0.0351,-0.0322,-0.0322,-0.0374,-0.0396,-0.0327,-0.0327,-0.0326,-0.0326,0,-0.0089,-0.0096,-0.0064,-0.0052,-0.0048,-0.002,-0.0007,0.0015,0.0018,0.0051,0.0053,0.0039,0.0008,-0.0065,-0.0148,-0.0223,-0.0342,-0.0335,-0.03,-0.0316,-0.0416,-0.0436,-0.0584,-0.0636,-0.0407,-0.0407,-0.0407,0,-0.0067,-0.0046,-0.0015,0.0003,0.0011,0.0038,0.0052,0.0046,0.0067,0.009,0.0108,0.0087,0.0092,-0.0022,-0.0142,-0.0263,-0.0355,-0.0344,-0.0357,-0.0407,-0.0446,-0.0553,-0.0593,-0.034,-0.034,-0.0339,-0.0339,0,-0.0027,-0.0008,0.0023,0.0064,0.0086,0.0109,0.0125,0.0146,0.0146,0.0181,0.0214,0.0219,0.0121,0.0052,-0.0114,-0.0221,-0.0393,-0.0344,-0.0399,-0.0391,-0.0507,-0.057,-0.0334,-0.0337,-0.0337,-0.0337,-0.0337,-0.0338,0.0009,0.0045,0.0084,0.0125,0.0148,0.0173,0.0204,0.0225,0.0267,0.0327,0.0313,0.0373,0.0253,0.0052,-0.0113,-0.0347,-0.0403,-0.041,-0.0432,-0.0539,-0.058,-0.0343,-0.0368,-0.0368,-0.0368,-0.0369,-0.0369,0,0.0042,0.008,0.0127,0.0177,0.0211,0.0209,0.0247,0.0288,0.0354,0.0429,0.0478,0.0513,0.0351,0.014,-0.0158,-0.0367,-0.0527,-0.0477,-0.0595,-0.0633,-0.0406,-0.0389,-0.0415,-0.0415,-0.0415,-0.0415,-0.0414,-0.0414,0.0064,0.0117,0.0146,0.0213,0.0247,0.0293,0.0321,0.0391,0.0462,0.0599,0.0693,0.0747,0.0666,0.0104,-0.0295,-0.0417,-0.0618,-0.0682,-0.0775,-0.056,-0.0555,-0.0551,-0.054,-0.0597,-0.0597,-0.1021,-0.1024,-0.1026]}],[{"header":{"parameterUnit":"m.s-1","parameterCategory":2,"la1":30.2991,"la2":30.254,"lo1":-89.0895,"lo2":-89.0444,"dy":0.0017,"dx":0.0017,"nx":28,"ny":28,"refTime":"2023-08-18T21:00:00:Z","depth":"2","parameterNumber":2,"parameterNumberName":"U-component_of_CURRENTS"},"data":[0,0,0,0,0,0,0,0,0,0,0,0,0,0,0,0,0,0,0,0,0,0,0,0,0,0,0,0,0,0,0,0,0,0,0,0,0,0,0,0,0,0,0,0,0,0,0,0,0,0,0,0,0,0,0,0,0,0,-0.0262,-0.0262,0,-0.0352,-0.0354,-0.0357,-0.0431,-0.0431,-0.043,-0.0429,-0.0462,-0.0464,-0.0465,0,0,0,0,0,0,0,0,0,0,0,0,0,-0.0331,-0.033,-0.0262,-0.0262,-0.0261,-0.0352,-0.0354,-0.0357,-0.0431,-0.0431,-0.043,-0.0429,-0.0462,-0.0464,-0.0465,0,0,0,0,0,0,0,0,0,0,0,0,0,-0.0363,-0.0329,-0.0262,-0.0298,-0.0301,-0.0351,-0.0355,-0.0358,-0.0432,-0.0431,-0.043,-0.0429,-0.0461,-0.0463,-0.0466,-0.0497,0,0,-0.0472,-0.0473,0,0,0,0,0,0,0,0,-0.0361,-0.0363,-0.0293,-0.0295,-0.0299,-0.0366,-0.039,-0.0396,-0.0432,-0.0398,-0.0429,-0.0428,-0.0415,-0.0421,-0.0463,-0.0499,-0.05,-0.0472,-0.0474,-0.0475,-0.0475,0,0,0,0,0,0,0,-0.0359,-0.036,-0.0313,-0.0292,-0.0296,-0.0369,-0.0373,-0.0394,-0.0422,-0.0401,-0.0403,-0.0389,-0.0419,-0.0461,-0.0464,-0.0501,-0.0472,-0.0474,-0.0476,-0.0477,-0.049,-0.0489,0,0,0,0,0,0,-0.0308,-0.0357,-0.031,-0.0314,-0.0311,-0.0367,-0.0372,-0.0358,-0.0423,-0.0428,-0.0389,-0.0392,-0.0458,-0.0461,-0.0465,-0.0398,-0.0475,-0.0477,-0.0478,-0.0491,-0.049,-0.0489,0,0,0,0,0,0,-0.0309,-0.0303,-0.0306,-0.0326,-0.0329,-0.0364,-0.035,-0.036,-0.0337,-0.0412,-0.0419,-0.0345,-0.0457,-0.0462,-0.0433,-0.0403,-0.0478,-0.048,-0.0492,-0.0491,-0.0489,-0.0332,0,0,0,0,0,0,-0.0311,-0.0303,-0.0273,-0.0322,-0.0325,-0.0299,-0.0349,-0.0362,-0.0326,-0.0329,-0.0377,-0.0384,-0.0457,-0.0429,-0.0435,-0.0407,-0.0481,-0.0493,-0.0492,-0.049,-0.0338,-0.0325,-0.0314,0,0,0,0,0,-0.0314,-0.0276,-0.0271,-0.0264,-0.0283,-0.0295,-0.0306,-0.034,-0.0323,-0.0315,-0.0334,-0.0379,-0.0424,-0.0429,-0.0436,-0.0409,-0.0494,-0.0492,-0.049,-0.0343,-0.0328,-0.0314,0,0,0,0,0,0,-0.0241,-0.028,-0.0276,-0.0235,-0.024,-0.0301,-0.0275,-0.0289,-0.0302,-0.0269,-0.0349,-0.0358,-0.0338,-0.0385,-0.0388,-0.0412,-0.0473,-0.0473,-0.036,-0.0345,-0.0333,-0.0314,-0.0483,0,0,0,0,0,-0.0216,-0.0234,-0.0238,-0.0203,-0.018,-0.0209,-0.0207,-0.0215,-0.0231,-0.0234,-0.0277,-0.0311,-0.035,-0.0346,-0.0399,-0.038,-0.0379,-0.0376,-0.0363,-0.0352,-0.0344,-0.0293,-0.0273,-0.0482,-0.0482,-0.0482,0,0,-0.0185,-0.0196,-0.0206,-0.0195,-0.019,-0.0178,-0.0208,-0.0161,-0.017,-0.023,-0.0233,-0.0262,-0.0337,-0.0345,-0.0339,-0.0364,-0.0289,-0.035,-0.0339,-0.0338,-0.0288,-0.0267,-0.0249,-0.0481,-0.0481,-0.0481,0,0,-0.0132,-0.0112,-0.0105,-0.0102,-0.0065,-0.0098,-0.0057,-0.007,-0.0083,-0.0073,-0.0134,-0.0126,-0.0181,-0.0243,-0.0277,-0.0218,-0.0232,-0.023,-0.0139,-0.0088,-0.0069,-0.0053,0.0004,0.0024,-0.0215,-0.0215,-0.0215,0,-0.0067,-0.0077,-0.0096,-0.0062,-0.0052,-0.0045,-0.0007,-0.0032,-0.0048,-0.0048,-0.0043,-0.0108,-0.0148,-0.0178,-0.0159,-0.0189,-0.0147,-0.0182,-0.0066,-0.0051,-0.0037,0.0017,0.0037,-0.0207,-0.0208,-0.0209,-0.021,0,-0.0028,-0.0015,0.0016,0.0017,0.0034,0.0072,0.0063,0.008,0.0089,0.0052,0.0063,0.0012,-0.0019,-0.0037,-0.0071,-0.0013,-0.0009,-0.0056,-0.009,-0.0005,0.0044,0.0063,-0.0196,-0.0199,-0.0201,-0.0203,0,0,0.0109,0.0035,0.0083,0.0066,0.0082,0.011,0.0122,0.0115,0.0138,0.0132,0.0137,0.0105,0.0121,0.0084,0.0046,0.0093,0.0244,0.0094,0.0093,0.0174,0.04,0.0422,0.0444,0.0251,0.0254,0.0257,0.0406,0,0.0167,0.0191,0.0151,0.0189,0.0186,0.0185,0.0179,0.019,0.0183,0.0182,0.0166,0.0163,0.0148,0.0178,0.0225,0.022,0.0297,0.021,0.0282,0.0284,0.0314,0.0466,0.0306,0.0428,0.0424,0.0427,0.0429,0,0.0257,0.023,0.0254,0.0211,0.0237,0.027,0.0304,0.0298,0.0285,0.0292,0.0312,0.0284,0.0334,0.0315,0.0417,0.0382,0.0429,0.0431,0.0435,0.0411,0.0341,0.0333,0.0461,0.0459,0.0456,0.0454,0.0452,0,0.0317,0.0337,0.0333,0.0328,0.0278,0.0331,0.0356,0.0362,0.0356,0.0387,0.0405,0.0434,0.0469,0.0535,0.0561,0.0532,0.0666,0.0605,0.0662,0.0662,0.0511,0.0494,0.0709,0.0709,0.0708,0.0708,0.0707,0,0.0339,0.0391,0.0381,0.0356,0.0433,0.0416,0.048,0.0505,0.05,0.0507,0.0499,0.0515,0.0542,0.0588,0.0621,0.0721,0.0734,0.0724,0.0722,0.0563,0.055,0.0537,0.0515,0.0713,0.0712,0.0711,0.071,0,0.0407,0.038,0.0369,0.0364,0.0423,0.0499,0.0571,0.0582,0.0605,0.0618,0.0642,0.0625,0.0721,0.0722,0.0806,0.0808,0.0874,0.0896,0.0716,0.0693,0.0825,0.0809,0.1012,0.1014,0.1016,0.1018,0.1019,0,0.0397,0.0403,0.0417,0.0447,0.047,0.0577,0.0629,0.0661,0.0645,0.068,0.0671,0.0754,0.0795,0.0914,0.0934,0.1021,0.097,0.0898,0.0804,0.0889,0.0866,0.0846,0.0828,0.0668,0.0666,0.0665,0.0664,0,0.0384,0.043,0.0416,0.0481,0.0559,0.0601,0.068,0.0679,0.0688,0.0721,0.0762,0.0816,0.0917,0.0918,0.1,0.0997,0.0874,0.0881,0.1029,0.0621,0.0578,0.055,0.0541,0.0653,0.0654,0.0655,0.0655,0.0656,0.0391,0.0477,0.0474,0.0556,0.0616,0.0628,0.0665,0.07,0.0731,0.0778,0.0793,0.0855,0.077,0.0874,0.0915,0.0936,0.0953,0.0823,0.082,0.0821,0.0759,0.0723,0.0814,0.0816,0.0818,0.0819,0.0821,0,0.037,0.0523,0.0568,0.0603,0.0602,0.067,0.0694,0.0675,0.0748,0.0804,0.0876,0.0702,0.073,0.0737,0.0782,0.0811,0.0761,0.0753,0.0617,0.0624,0.0631,0.0556,0.056,0.0561,0.0562,0.0563,0,0,0.0394,0.0492,0.0571,0.0586,0.0627,0.0673,0.07,0.0709,0.0718,0.0718,0.0746,0.0752,0.0682,0.0609,0.0572,0.061,0.0636,0.0598,0.0772,0.0614,0.0624,0.0601,0.0485,0,0,0,0,0]},{"header":{"parameterUnit":"m.s-1","parameterCategory":2,"la1":30.2991,"la2":30.254,"lo1":-89.0895,"lo2":-89.0444,"dy":0.0017,"dx":0.0017,"nx":28,"ny":28,"refTime":"2023-08-18T21:00:00:Z","depth":"2","parameterNumber":3,"parameterNumberName":"V-component_of_CURRENTS"},"data":[0,0,0,0,0,0,0,0,0,0,0,0,0,0,0,0,0,0,0,0,0,0,0,0,0,0,0,0,0,0,0,0,0,0,0,0,0,0,0,0,0,0,0,0,0,0,0,0,0,0,0,0,0,0,0,0,0,0,-0.0084,-0.0082,0,0.001,0.001,0.001,-0.0013,-0.0014,-0.0015,-0.0016,0.0021,0.0023,0.0025,0,0,0,0,0,0,0,0,0,0,0,0,0,-0.0189,-0.0189,-0.0084,-0.0082,-0.008,0.0009,0.001,0.001,-0.0013,-0.0014,-0.0015,-0.0017,0.0021,0.0023,0.0025,0,0,0,0,0,0,0,0,0,0,0,0,0,-0.0132,-0.0188,-0.0084,-0.0075,-0.0073,0.0009,0.001,0.0011,-0.0012,-0.0014,-0.0016,-0.0017,0.002,0.0023,0.0026,0.0077,0,0,0.0035,0.0036,0,0,0,0,0,0,0,0,-0.0136,-0.013,-0.0078,-0.0075,-0.0073,-0.0008,-0.0013,0.0033,-0.0012,-0.0044,-0.0016,-0.0018,0.0013,0.0016,0.0027,0.0079,0.008,0.0035,0.0037,0.0038,0.0039,0,0,0,0,0,0,0,-0.014,-0.0133,-0.0055,-0.0076,-0.0072,-0.0043,-0.0039,-0.0004,-0.0015,-0.0041,-0.0041,-0.0017,0.0012,0.0024,0.0027,0.0081,0.0035,0.0038,0.004,0.0041,0.0078,0.0077,0,0,0,0,0,0,-0.0138,-0.0137,-0.0058,-0.0051,-0.01,-0.004,-0.0035,-0.0034,-0.0014,-0.001,-0.0016,-0.0018,0.002,0.0024,0.0029,0.0005,0.0038,0.0041,0.0043,0.0079,0.0078,0.0077,0,0,0,0,0,0,-0.0141,-0.0133,-0.0061,-0.0084,-0.0072,-0.0036,-0.0034,-0.0031,-0.0051,0.0008,0.0009,-0.0042,0.0018,0.0024,0.0043,0.0009,0.0042,0.0045,0.008,0.0078,0.0077,0.0012,0,0,0,0,0,0,-0.0145,-0.0135,-0.0144,-0.0085,-0.0071,-0.005,-0.0032,-0.0027,-0.0028,-0.0032,-0.0014,-0.001,0.0018,0.0038,0.0045,0.0014,0.0047,0.0081,0.0079,0.0078,0.0015,0.0009,0.0003,0,0,0,0,0,-0.015,-0.0143,-0.0146,-0.0136,-0.0082,-0.0051,-0.0044,-0.0026,-0.0028,-0.005,-0.002,-0.0013,0.0032,0.0041,0.005,0.0018,0.0081,0.0079,0.0078,0.0018,0.001,0.0003,0,0,0,0,0,0,-0.0187,-0.0141,-0.0144,-0.0125,-0.011,-0.0053,-0.0054,-0.0043,-0.0035,-0.0045,-0.0003,0.0003,-0.0006,0.0025,0.0033,0.0022,0.005,0.005,0.0001,-0.0006,-0.0011,-0.0019,0.005,0,0,0,0,0,-0.0198,-0.0186,-0.0152,-0.0137,-0.0141,-0.0108,-0.0094,-0.0089,-0.006,-0.0062,-0.0042,-0.002,0.0001,0.0012,0.0026,0.0043,0.0052,0.0022,0.0016,0.0011,0.001,0.0001,-0.0006,0.0071,0.0071,0.0071,0,0,-0.02,-0.0174,-0.0165,-0.0144,-0.0134,-0.0122,-0.0109,-0.0105,-0.0093,-0.0054,-0.0052,-0.0047,-0.0003,0.0001,-0.0001,0.0021,-0.001,0.0008,0.0004,0.0006,-0.0001,-0.0009,-0.0015,0.0069,0.007,0.007,0,0,-0.0186,-0.0194,-0.0186,-0.0184,-0.0172,-0.0149,-0.0159,-0.0138,-0.0145,-0.0127,-0.0107,-0.0115,-0.0074,-0.0056,-0.0034,-0.0059,-0.0051,-0.007,-0.0093,-0.0101,-0.0108,-0.0113,-0.0126,-0.0132,-0.0061,-0.0062,-0.0062,0,-0.0194,-0.0179,-0.018,-0.0179,-0.0162,-0.0167,-0.016,-0.0156,-0.013,-0.0124,-0.0143,-0.0113,-0.0098,-0.007,-0.0092,-0.0075,-0.0079,-0.0068,-0.011,-0.0115,-0.012,-0.0131,-0.0137,-0.0065,-0.0064,-0.0064,-0.0064,0,-0.0168,-0.0176,-0.0176,-0.0171,-0.0165,-0.0163,-0.0154,-0.0167,-0.0173,-0.0159,-0.0175,-0.0166,-0.0143,-0.0158,-0.0128,-0.0153,-0.0147,-0.0128,-0.0094,-0.0131,-0.0141,-0.0146,-0.007,-0.0068,-0.0067,-0.0067,0,0,-0.0141,-0.0153,-0.016,-0.0156,-0.0165,-0.0143,-0.0148,-0.0134,-0.0123,-0.0158,-0.0148,-0.0162,-0.0187,-0.0166,-0.0161,-0.018,-0.0231,-0.0175,-0.0174,-0.0191,-0.0261,-0.0235,-0.0237,-0.0224,-0.0225,-0.0225,-0.026,0,-0.0127,-0.0115,-0.0123,-0.0108,-0.0105,-0.0116,-0.0104,-0.0099,-0.011,-0.0111,-0.0144,-0.0142,-0.0177,-0.0182,-0.0214,-0.0225,-0.0245,-0.0224,-0.0218,-0.0218,-0.0192,-0.0242,-0.0195,-0.022,-0.0264,-0.0265,-0.0265,0,-0.0106,-0.0096,-0.0088,-0.007,-0.0071,-0.0057,-0.0037,-0.0034,-0.0049,-0.0065,-0.01,-0.012,-0.0165,-0.0188,-0.0253,-0.0242,-0.026,-0.0277,-0.0278,-0.0231,-0.02,-0.0186,-0.0227,-0.0273,-0.0273,-0.0272,-0.0271,0,-0.0066,-0.0067,-0.0052,-0.0051,-0.004,-0.0029,-0.0017,-0.0022,-0.0018,-0.0044,-0.0049,-0.0108,-0.0133,-0.0192,-0.0256,-0.0254,-0.0324,-0.0309,-0.03,-0.0299,-0.0245,-0.0236,-0.0343,-0.0343,-0.0343,-0.0343,-0.0343,0,-0.0034,-0.0029,-0.0033,-0.0019,0.0004,0.0002,0.0026,0.0021,0.0012,0.0021,-0.0033,-0.0036,-0.0139,-0.019,-0.0252,-0.0307,-0.0321,-0.0318,-0.0309,-0.0267,-0.026,-0.0286,-0.0279,-0.0344,-0.0344,-0.0343,-0.0343,0,-0.0007,-0.0022,0.0014,0.0032,0.0017,0.0045,0.0049,0.0071,0.0052,0.0058,0.0049,0.0006,-0.0061,-0.0156,-0.0239,-0.028,-0.0338,-0.034,-0.0292,-0.0276,-0.0308,-0.0303,-0.034,-0.0339,-0.0339,-0.0338,-0.0338,0,0.0014,0.0018,0.0049,0.0065,0.0067,0.0083,0.0083,0.0075,0.0099,0.0094,0.0106,0.0053,0.0056,-0.0071,-0.0158,-0.0251,-0.0313,-0.0286,-0.0267,-0.0322,-0.0309,-0.0306,-0.0302,-0.0229,-0.0228,-0.0227,-0.0226,0,0.0046,0.005,0.009,0.0118,0.0131,0.0153,0.0165,0.0176,0.0171,0.0203,0.0238,0.0248,0.0155,0.0071,-0.0072,-0.0122,-0.0277,-0.0266,-0.0341,-0.0231,-0.0219,-0.0206,-0.0206,-0.0218,-0.0219,-0.0219,-0.022,-0.022,0.0092,0.0114,0.0151,0.019,0.0208,0.0233,0.0258,0.0288,0.033,0.0386,0.0382,0.0405,0.0213,0.0087,-0.0038,-0.0154,-0.014,-0.0216,-0.0219,-0.0223,-0.0197,-0.0184,-0.0173,-0.0173,-0.0174,-0.0174,-0.0175,0,0.0146,0.0152,0.0203,0.0265,0.0313,0.0289,0.0317,0.0365,0.0433,0.0477,0.0559,0.0409,0.0328,0.0113,-0.001,-0.0102,-0.0092,-0.0174,-0.0173,-0.0178,-0.0184,-0.0158,-0.0123,-0.0124,-0.0124,-0.0125,0,0,0.0176,0.0219,0.0238,0.0329,0.0363,0.0398,0.0414,0.0488,0.0532,0.0585,0.0582,0.0608,0.0332,0.0187,0.0041,-0.0038,-0.0072,-0.0034,-0.0053,-0.0035,-0.004,-0.0176,-0.0138,0,0,0,0,0]}],[{"header":{"parameterUnit":"m.s-1","parameterCategory":2,"la1":30.2991,"la2":30.254,"lo1":-89.0895,"lo2":-89.0444,"dy":0.0017,"dx":0.0017,"nx":28,"ny":28,"refTime":"2023-08-18T21:00:00:Z","depth":"4","parameterNumber":2,"parameterNumberName":"U-component_of_CURRENTS"},"data":[0,0,0,0,0,0,0,0,0,0,0,0,0,0,0,0,0,0,0,0,0,0,0,0,0,0,0,0,0,0,0,0,0,0,0,0,0,0,0,0,0,0,0,0,0,0,0,0,0,0,0,0,0,0,0,0,0,0,-0.0421,-0.0421,0,-0.0499,-0.0501,-0.0502,-0.055,-0.055,-0.055,-0.055,-0.0634,-0.0636,-0.0639,0,0,0,0,0,0,0,0,0,0,0,0,0,-0.0389,-0.039,-0.0421,-0.0421,-0.0422,-0.0499,-0.0501,-0.0502,-0.055,-0.055,-0.055,-0.055,-0.0633,-0.0636,-0.0639,0,0,0,0,0,0,0,0,0,0,0,0,0,-0.0434,-0.039,-0.042,-0.0451,-0.0454,-0.0499,-0.0501,-0.0503,-0.055,-0.055,-0.055,-0.0549,-0.0632,-0.0636,-0.0639,-0.0668,0,0,-0.0651,-0.0652,0,0,0,0,0,0,0,0,-0.0431,-0.0435,-0.0446,-0.0449,-0.0453,-0.051,-0.0521,-0.0557,-0.055,-0.0519,-0.055,-0.0549,-0.059,-0.0597,-0.062,-0.0672,-0.0676,-0.0651,-0.0653,-0.0655,-0.0656,0,0,0,0,0,0,0,-0.0428,-0.0433,-0.0457,-0.0447,-0.0451,-0.0487,-0.0493,-0.0528,-0.0559,-0.0522,-0.0524,-0.0525,-0.0593,-0.0616,-0.0622,-0.0677,-0.0651,-0.0654,-0.0656,-0.0658,-0.0858,-0.0861,0,0,0,0,0,0,-0.0404,-0.0429,-0.0454,-0.0459,-0.0435,-0.0487,-0.0494,-0.0496,-0.0559,-0.0567,-0.0525,-0.0527,-0.061,-0.0618,-0.0625,-0.0754,-0.0655,-0.0658,-0.066,-0.0855,-0.0859,-0.0862,0,0,0,0,0,0,-0.0403,-0.0406,-0.0451,-0.0442,-0.0449,-0.0487,-0.049,-0.0498,-0.0529,-0.0561,-0.057,-0.0548,-0.061,-0.062,-0.0674,-0.0754,-0.066,-0.0663,-0.0851,-0.0856,-0.0861,-0.0954,0,0,0,0,0,0,-0.0402,-0.0405,-0.04,-0.044,-0.0449,-0.0477,-0.049,-0.0499,-0.0527,-0.053,-0.0583,-0.059,-0.0611,-0.0669,-0.0678,-0.0758,-0.0666,-0.0847,-0.0854,-0.0859,-0.0947,-0.0962,-0.0974,0,0,0,0,0,-0.0401,-0.039,-0.04,-0.0402,-0.044,-0.0476,-0.0485,-0.0515,-0.0528,-0.0543,-0.0588,-0.0589,-0.0714,-0.0673,-0.0684,-0.0766,-0.0845,-0.0852,-0.0859,-0.0941,-0.0959,-0.0974,0,0,0,0,0,0,-0.0388,-0.0395,-0.0406,-0.0402,-0.0436,-0.0482,-0.0495,-0.052,-0.0569,-0.0591,-0.0612,-0.0623,-0.0705,-0.0717,-0.0672,-0.0843,-0.0787,-0.0796,-0.0846,-0.0863,-0.0876,-0.0812,-0.0669,0,0,0,0,0,-0.0378,-0.0364,-0.0397,-0.0397,-0.0413,-0.0459,-0.0477,-0.0516,-0.056,-0.0582,-0.0621,-0.068,-0.0743,-0.0782,-0.0827,-0.0911,-0.0859,-0.0977,-0.099,-0.1001,-0.0958,-0.0992,-0.1004,-0.0885,-0.0885,-0.0885,0,0,-0.0379,-0.0374,-0.0374,-0.0392,-0.0423,-0.0447,-0.0471,-0.0521,-0.0553,-0.0585,-0.0647,-0.0716,-0.077,-0.0871,-0.0912,-0.0893,-0.1002,-0.101,-0.1019,-0.0968,-0.1001,-0.1012,-0.1021,-0.089,-0.0889,-0.0888,0,0,-0.0368,-0.037,-0.0361,-0.0379,-0.0421,-0.0456,-0.0469,-0.0539,-0.058,-0.0647,-0.0701,-0.078,-0.0876,-0.0933,-0.0972,-0.1074,-0.1061,-0.1151,-0.1183,-0.122,-0.1229,-0.1236,-0.1147,-0.1146,-0.1173,-0.1174,-0.1174,0,-0.0372,-0.0359,-0.037,-0.0368,-0.0391,-0.0454,-0.0482,-0.0526,-0.0612,-0.0647,-0.0669,-0.0829,-0.0881,-0.0992,-0.1068,-0.1096,-0.1101,-0.112,-0.1234,-0.124,-0.1245,-0.1153,-0.115,-0.1179,-0.1178,-0.1178,-0.1177,0,-0.0356,-0.0352,-0.0353,-0.0363,-0.0394,-0.0433,-0.0494,-0.0552,-0.0615,-0.0658,-0.0774,-0.0863,-0.0959,-0.1031,-0.1091,-0.121,-0.1189,-0.1234,-0.1182,-0.1262,-0.116,-0.1155,-0.1187,-0.1185,-0.1183,-0.1182,0,0,-0.0359,-0.0344,-0.0347,-0.0351,-0.0405,-0.0435,-0.0495,-0.0564,-0.06,-0.0701,-0.0756,-0.0909,-0.0987,-0.1036,-0.1153,-0.121,-0.1264,-0.1282,-0.1282,-0.117,-0.1296,-0.1125,-0.1101,-0.1389,-0.139,-0.139,-0.1193,0,-0.0356,-0.0332,-0.0347,-0.0369,-0.0375,-0.0448,-0.0483,-0.0557,-0.0632,-0.0699,-0.0802,-0.0904,-0.0985,-0.11,-0.1167,-0.1266,-0.1266,-0.1307,-0.1252,-0.1245,-0.1068,-0.1095,-0.1393,-0.1189,-0.1188,-0.1187,-0.1186,0,-0.0349,-0.0325,-0.0336,-0.0357,-0.0374,-0.0416,-0.0505,-0.0558,-0.0649,-0.0719,-0.0831,-0.091,-0.104,-0.11,-0.119,-0.125,-0.1267,-0.1288,-0.1283,-0.1075,-0.1067,-0.1105,-0.1176,-0.1177,-0.1178,-0.1178,-0.1179,0,-0.0331,-0.0333,-0.0339,-0.0345,-0.0376,-0.0432,-0.0492,-0.0576,-0.0624,-0.077,-0.0805,-0.0941,-0.1016,-0.11,-0.1118,-0.1228,-0.1124,-0.1263,-0.1059,-0.1042,-0.121,-0.1205,-0.1246,-0.1246,-0.1247,-0.1247,-0.1248,0,-0.0316,-0.0319,-0.0337,-0.0331,-0.0367,-0.0428,-0.0507,-0.0578,-0.0674,-0.0692,-0.0846,-0.0847,-0.1044,-0.1001,-0.1066,-0.0976,-0.1059,-0.1011,-0.0992,-0.125,-0.1252,-0.1202,-0.12,-0.124,-0.1241,-0.1243,-0.1244,0,-0.0301,-0.0299,-0.0297,-0.0331,-0.0356,-0.0404,-0.0514,-0.0542,-0.0655,-0.0692,-0.0746,-0.0797,-0.0779,-0.0799,-0.0848,-0.0847,-0.0814,-0.073,-0.085,-0.0848,-0.0729,-0.0735,-0.0581,-0.0573,-0.0567,-0.0562,-0.0557,0,-0.0283,-0.0279,-0.0293,-0.0296,-0.0328,-0.0407,-0.0434,-0.055,-0.0569,-0.0604,-0.0578,-0.0568,-0.059,-0.0437,-0.0525,-0.0506,-0.0523,-0.0464,-0.0759,-0.0669,-0.0667,-0.0683,-0.0696,-0.0547,-0.0546,-0.0544,-0.0542,0,-0.0257,-0.0273,-0.0267,-0.0262,-0.0293,-0.031,-0.0368,-0.0369,-0.0452,-0.0523,-0.0429,-0.0414,-0.0312,-0.0342,-0.0247,-0.0267,-0.0531,-0.0402,-0.0422,-0.0701,-0.0627,-0.0635,-0.0656,-0.0521,-0.0524,-0.0526,-0.0527,0,-0.025,-0.0241,-0.0233,-0.0238,-0.024,-0.021,-0.0255,-0.0246,-0.0276,-0.0323,-0.0245,-0.0229,-0.0251,-0.0196,-0.0116,-0.0107,-0.0228,-0.0304,-0.0332,-0.0357,-0.0388,-0.0269,0.0006,0,0,0,0,0,-0.0235,-0.0218,-0.0206,-0.0183,-0.0172,-0.0176,-0.0182,-0.0218,-0.0262,-0.0176,-0.0237,-0.0147,-0.0098,-0.0064,-0.0035,-0.0064,-0.0228,-0.0028,-0.0331,-0.04,-0.0425,-0.049,0,0,0,0,0,0,-0.0219,-0.0211,-0.0192,-0.0135,-0.011,-0.0087,-0.0084,-0.0104,-0.0072,-0.0118,-0.0078,-0.0131,-0.0072,-0.0115,-0.003,-0.0028,-0.0213,-0.0032,-0.003,-0.0385,-0.0408,-0.0428,-0.0504,0,0,0,0,0]},{"header":{"parameterUnit":"m.s-1","parameterCategory":2,"la1":30.2991,"la2":30.254,"lo1":-89.0895,"lo2":-89.0444,"dy":0.0017,"dx":0.0017,"nx":28,"ny":28,"refTime":"2023-08-18T21:00:00:Z","depth":"4","parameterNumber":3,"parameterNumberName":"V-component_of_CURRENTS"},"data":[0,0,0,0,0,0,0,0,0,0,0,0,0,0,0,0,0,0,0,0,0,0,0,0,0,0,0,0,0,0,0,0,0,0,0,0,0,0,0,0,0,0,0,0,0,0,0,0,0,0,0,0,0,0,0,0,0,0,-0.0104,-0.0105,0,-0.0152,-0.0152,-0.0153,-0.0127,-0.0126,-0.0125,-0.0124,-0.0142,-0.0143,-0.0145,0,0,0,0,0,0,0,0,0,0,0,0,0,0.0014,0.0012,-0.0104,-0.0105,-0.0106,-0.0152,-0.0152,-0.0153,-0.0127,-0.0126,-0.0124,-0.0123,-0.0141,-0.0143,-0.0145,0,0,0,0,0,0,0,0,0,0,0,0,0,-0.0033,0.0011,-0.0104,-0.0101,-0.0101,-0.0152,-0.0152,-0.0153,-0.0127,-0.0126,-0.0124,-0.0123,-0.0141,-0.0143,-0.0145,-0.0189,0,0,-0.0152,-0.0152,0,0,0,0,0,0,0,0,-0.0031,-0.0037,-0.01,-0.0101,-0.0102,-0.0134,-0.0117,-0.0165,-0.0128,-0.0114,-0.0124,-0.0122,-0.014,-0.0142,-0.015,-0.019,-0.0191,-0.0152,-0.0153,-0.0154,-0.0155,0,0,0,0,0,0,0,-0.0028,-0.0035,-0.012,-0.0102,-0.0102,-0.0095,-0.01,-0.0126,-0.0132,-0.0115,-0.0114,-0.0125,-0.0139,-0.0148,-0.0151,-0.0191,-0.0152,-0.0154,-0.0155,-0.0156,-0.0276,-0.0278,0,0,0,0,0,0,-0.003,-0.0033,-0.0119,-0.0122,-0.0065,-0.0099,-0.0104,-0.0123,-0.0133,-0.0134,-0.0126,-0.0123,-0.0146,-0.0148,-0.0151,-0.0189,-0.0154,-0.0156,-0.0157,-0.0274,-0.0277,-0.0279,0,0,0,0,0,0,-0.0027,-0.0038,-0.0117,-0.008,-0.009,-0.0103,-0.0124,-0.0125,-0.0131,-0.0142,-0.0141,-0.0131,-0.0144,-0.0148,-0.0191,-0.019,-0.0157,-0.0159,-0.0272,-0.0275,-0.0278,-0.0275,0,0,0,0,0,0,-0.0024,-0.0037,-0.0048,-0.008,-0.0092,-0.0144,-0.0126,-0.0127,-0.0142,-0.0138,-0.0147,-0.0146,-0.0143,-0.0188,-0.0193,-0.0192,-0.0161,-0.027,-0.0274,-0.0277,-0.0273,-0.0278,-0.0282,0,0,0,0,0,-0.002,-0.0043,-0.0049,-0.0059,-0.0109,-0.0146,-0.0151,-0.0152,-0.0143,-0.0151,-0.017,-0.0146,-0.0213,-0.0192,-0.0198,-0.0197,-0.0268,-0.0272,-0.0277,-0.0271,-0.0277,-0.0282,0,0,0,0,0,0,0.0004,-0.0044,-0.0051,-0.0087,-0.0113,-0.0142,-0.0151,-0.0158,-0.018,-0.0178,-0.018,-0.0183,-0.0224,-0.0224,-0.02,-0.0247,-0.0234,-0.0239,-0.0228,-0.0233,-0.0237,-0.0231,-0.0162,0,0,0,0,0,-0.0,-0.0034,-0.0069,-0.0101,-0.011,-0.0133,-0.0147,-0.0155,-0.0181,-0.0187,-0.0207,-0.0227,-0.025,-0.025,-0.0284,-0.0308,-0.0292,-0.0312,-0.0317,-0.032,-0.0323,-0.0302,-0.0303,-0.0293,-0.0293,-0.0293,0,0,-0.0003,-0.0034,-0.0053,-0.0098,-0.0115,-0.0149,-0.0136,-0.0164,-0.0197,-0.0189,-0.0243,-0.0257,-0.0269,-0.0301,-0.0316,-0.0292,-0.0317,-0.0325,-0.0327,-0.0329,-0.0307,-0.0307,-0.0307,-0.0296,-0.0295,-0.0295,0,0,-0.0025,-0.0048,-0.0077,-0.0104,-0.0139,-0.016,-0.017,-0.0211,-0.0224,-0.0282,-0.0284,-0.0313,-0.0347,-0.0358,-0.0362,-0.0418,-0.0358,-0.0406,-0.0398,-0.0378,-0.0377,-0.0377,-0.0355,-0.0352,-0.0386,-0.0386,-0.0386,0,-0.0025,-0.0069,-0.009,-0.0123,-0.0152,-0.0167,-0.0205,-0.023,-0.0287,-0.0307,-0.0301,-0.0369,-0.0382,-0.0406,-0.0409,-0.0427,-0.0386,-0.0367,-0.0379,-0.0378,-0.0377,-0.0355,-0.0352,-0.0386,-0.0386,-0.0386,-0.0386,0,-0.0067,-0.0101,-0.0119,-0.0173,-0.0206,-0.024,-0.028,-0.0321,-0.0343,-0.0363,-0.0411,-0.0434,-0.0454,-0.0461,-0.0442,-0.044,-0.0404,-0.0398,-0.0352,-0.0377,-0.0354,-0.035,-0.0387,-0.0387,-0.0387,-0.0387,0,0,-0.0079,-0.0136,-0.0145,-0.0171,-0.0235,-0.0267,-0.0331,-0.0383,-0.0412,-0.0452,-0.0483,-0.0517,-0.0494,-0.05,-0.048,-0.0454,-0.0416,-0.0395,-0.0394,-0.0351,-0.0338,-0.035,-0.0347,-0.0373,-0.0373,-0.0373,-0.0321,0,-0.0104,-0.0162,-0.0198,-0.0264,-0.0293,-0.034,-0.0393,-0.0443,-0.0479,-0.0515,-0.0519,-0.0534,-0.0512,-0.0492,-0.0471,-0.0437,-0.0406,-0.043,-0.0341,-0.0339,-0.0327,-0.0345,-0.0372,-0.0318,-0.0317,-0.0317,-0.0316,0,-0.0138,-0.0172,-0.0234,-0.0298,-0.0315,-0.0364,-0.0447,-0.0494,-0.054,-0.0553,-0.0561,-0.0546,-0.0525,-0.0499,-0.0442,-0.0434,-0.0381,-0.0356,-0.0353,-0.0363,-0.0346,-0.0293,-0.031,-0.0311,-0.0311,-0.0312,-0.0312,0,-0.0135,-0.0201,-0.025,-0.0276,-0.0352,-0.0396,-0.0438,-0.0505,-0.0533,-0.0556,-0.0554,-0.0543,-0.0514,-0.0463,-0.0412,-0.0389,-0.0352,-0.0326,-0.0301,-0.0301,-0.0301,-0.0303,-0.0287,-0.0287,-0.0287,-0.0287,-0.0287,0,-0.0159,-0.0198,-0.0247,-0.0279,-0.0334,-0.0387,-0.045,-0.0492,-0.053,-0.0543,-0.0542,-0.053,-0.0487,-0.0462,-0.0413,-0.0358,-0.0352,-0.0306,-0.0291,-0.0305,-0.0307,-0.0298,-0.03,-0.0285,-0.0286,-0.0286,-0.0287,0,-0.0169,-0.0198,-0.025,-0.0316,-0.0338,-0.0379,-0.0446,-0.0479,-0.0503,-0.0522,-0.0507,-0.0495,-0.044,-0.0434,-0.0367,-0.0355,-0.0316,-0.0299,-0.0328,-0.0314,-0.0268,-0.0271,-0.024,-0.024,-0.024,-0.024,-0.024,0,-0.0185,-0.0209,-0.027,-0.0295,-0.0331,-0.0387,-0.0422,-0.0464,-0.0485,-0.0494,-0.0486,-0.0444,-0.0429,-0.0361,-0.0352,-0.0305,-0.0295,-0.0287,-0.0265,-0.0276,-0.0264,-0.0267,-0.027,-0.024,-0.024,-0.024,-0.024,0,-0.0209,-0.0225,-0.0261,-0.03,-0.0339,-0.0389,-0.0431,-0.0428,-0.046,-0.0477,-0.043,-0.0402,-0.0363,-0.0326,-0.0316,-0.0278,-0.0305,-0.0287,-0.0285,-0.0264,-0.0276,-0.0265,-0.0267,-0.024,-0.024,-0.024,-0.024,0,-0.0218,-0.0237,-0.0265,-0.0297,-0.0344,-0.0374,-0.0401,-0.0404,-0.0415,-0.0408,-0.0388,-0.0357,-0.0346,-0.0311,-0.0299,-0.0281,-0.0246,-0.0237,-0.0237,-0.0237,-0.0265,-0.0283,-0.0236,0,0,0,0,0,-0.0219,-0.0226,-0.0258,-0.029,-0.0333,-0.0361,-0.04,-0.0418,-0.0425,-0.0379,-0.0381,-0.0338,-0.0297,-0.0286,-0.0256,-0.0296,-0.026,-0.0265,-0.0253,-0.0241,-0.0241,-0.0279,0,0,0,0,0,0,-0.0222,-0.0242,-0.0246,-0.0269,-0.029,-0.0339,-0.0363,-0.0373,-0.0347,-0.0345,-0.0312,-0.0326,-0.0281,-0.0293,-0.0246,-0.0247,-0.0237,-0.0256,-0.0256,-0.0241,-0.0241,-0.0241,-0.028,0,0,0,0,0]}]]